| time (UTC) | temp F | wind direction | speed MPH | gust MPH | rain 1hr in | rain 24hr in | rain mn in | humidity % | barometer mb |
| 20260902212503 | 63 | 157 | 2.0 | 3.0 | 0.01 | 0.01 | 0.01 | 88 | 1019.1 |
| 20260902212003 | 63 | 157 | 1.0 | 3.0 | 0.01 | 0.01 | 0.01 | 88 | 1019.1 |
| 20260902211503 | 64 | 157 | 1.0 | 3.0 | 0.01 | 0.01 | 0.01 | 88 | 1019.2 |
| 20260902211003 | 64 | 157 | 2.0 | 3.0 | 0.01 | 0.01 | 0.01 | 87 | 1019.2 |
| 20260902210718 | 64 | 157 | 1.0 | 3.0 | 0.01 | 0.01 | 0.01 | 87 | 1019.2 |
| 20260902210003 | 64 | 157 | 2.0 | 5.0 | 0.00 | 0.00 | 0.00 | 86 | 1019.2 |
| 20260902205503 | 64 | 157 | 2.0 | 5.0 | 0.00 | 0.00 | 0.00 | 86 | 1019.3 |
| 20260902205003 | 64 | 157 | 2.0 | 5.0 | 0.00 | 0.00 | 0.00 | 85 | 1019.2 |
| 20260902204503 | 64 | 157 | 2.0 | 5.0 | 0.00 | 0.00 | 0.00 | 85 | 1019.3 |
| 20260902204217 | 64 | 157 | 2.0 | 5.0 | 0.00 | 0.00 | 0.00 | 85 | 1019.2 |
| 20260902203503 | 64 | 157 | 1.0 | 3.0 | 0.00 | 0.00 | 0.00 | 85 | 1019.3 |
| 20260902203217 | 64 | 157 | 2.0 | 3.0 | 0.00 | 0.00 | 0.00 | 85 | 1019.3 |
| 20260902202503 | 64 | 157 | 2.0 | 5.0 | 0.00 | 0.00 | 0.00 | 85 | 1019.4 |
| 20260902202003 | 64 | 154 | 2.0 | 5.0 | 0.00 | 0.00 | 0.00 | 85 | 1019.5 |
| 20260902201503 | 64 | 151 | 1.0 | 5.0 | 0.00 | 0.00 | 0.00 | 85 | 1019.4 |
| 20260902201003 | 64 | 149 | 0.0 | 3.0 | 0.00 | 0.00 | 0.00 | 85 | 1019.5 |
| 20260902200503 | 64 | 0 | 0.0 | 0.0 | 0.00 | 0.00 | 0.00 | 85 | 1019.6 |
| 20260902200003 | 64 | 0 | 0.0 | 0.0 | 0.00 | 0.00 | 0.00 | 84 | 1019.7 |
| 20260902195503 | 64 | 131 | 0.0 | 1.0 | 0.00 | 0.00 | 0.00 | 85 | 1019.6 |
| 20260902195003 | 65 | 139 | 1.0 | 3.0 | 0.00 | 0.00 | 0.00 | 84 | 1019.6 |
| 20260902194503 | 65 | 181 | 1.0 | 3.0 | 0.00 | 0.00 | 0.00 | 84 | 1019.7 |
| 20260902194003 | 65 | 238 | 0.0 | 2.0 | 0.00 | 0.00 | 0.00 | 84 | 1019.6 |
| 20260902193503 | 65 | 238 | 0.0 | 2.0 | 0.00 | 0.00 | 0.00 | 84 | 1019.7 |
| 20260902193003 | 65 | 238 | 1.0 | 2.0 | 0.00 | 0.00 | 0.00 | 83 | 1019.7 |
| 20260902192503 | 66 | 238 | 1.0 | 3.0 | 0.00 | 0.00 | 0.00 | 83 | 1019.7 |
| 20260902192216 | 66 | 238 | 1.0 | 3.0 | 0.00 | 0.00 | 0.00 | 83 | 1019.7 |
| 20260902191503 | 66 | 238 | 0.0 | 2.0 | 0.00 | 0.00 | 0.00 | 83 | 1019.7 |
| 20260902191003 | 66 | 0 | 0.0 | 0.0 | 0.00 | 0.00 | 0.00 | 83 | 1019.7 |
| 20260902190503 | 66 | 238 | 0.0 | 2.0 | 0.00 | 0.00 | 0.00 | 82 | 1019.7 |
| 20260902190003 | 66 | 238 | 0.0 | 2.0 | 0.00 | 0.00 | 0.00 | 82 | 1019.7 |
| 20260902185503 | 66 | 238 | 0.0 | 2.0 | 0.00 | 0.00 | 0.00 | 82 | 1019.7 |
| 20260902185003 | 66 | 238 | 0.0 | 2.0 | 0.00 | 0.00 | 0.00 | 81 | 1019.8 |
| 20260902184717 | 66 | 238 | 1.0 | 2.0 | 0.00 | 0.00 | 0.00 | 81 | 1019.7 |
| 20260902184003 | 66 | 238 | 1.0 | 3.0 | 0.00 | 0.00 | 0.00 | 81 | 1019.7 |
| 20260902183503 | 67 | 237 | 1.0 | 4.0 | 0.00 | 0.00 | 0.00 | 80 | 1019.6 |
| 20260902183003 | 67 | 236 | 1.0 | 4.0 | 0.00 | 0.00 | 0.00 | 80 | 1019.6 |
| 20260902182717 | 67 | 235 | 1.0 | 4.0 | 0.00 | 0.00 | 0.00 | 80 | 1019.7 |
| 20260902182003 | 67 | 236 | 1.0 | 4.0 | 0.00 | 0.00 | 0.00 | 80 | 1019.6 |
| 20260902181503 | 67 | 227 | 1.0 | 4.0 | 0.00 | 0.00 | 0.00 | 80 | 1019.6 |
| 20260902181003 | 67 | 218 | 1.0 | 4.0 | 0.00 | 0.00 | 0.00 | 79 | 1019.6 |
| 20260902180503 | 67 | 220 | 1.0 | 5.0 | 0.00 | 0.00 | 0.00 | 79 | 1019.6 |
| 20260902180005 | 68 | 216 | 1.0 | 5.0 | 0.00 | 0.00 | 0.00 | 79 | 1019.5 |
| 20260902175503 | 68 | 169 | 1.0 | 3.0 | 0.00 | 0.00 | 0.00 | 79 | 1019.6 |
| 20260902175003 | 68 | 155 | 1.0 | 3.0 | 0.00 | 0.00 | 0.00 | 79 | 1019.4 |
| 20260902174503 | 68 | 155 | 0.0 | 2.0 | 0.00 | 0.00 | 0.00 | 78 | 1019.5 |
| 20260902174003 | 68 | 0 | 0.0 | 0.0 | 0.00 | 0.00 | 0.00 | 78 | 1019.5 |
| 20260902173503 | 68 | 0 | 0.0 | 0.0 | 0.00 | 0.00 | 0.00 | 78 | 1019.5 |
| 20260902173003 | 68 | 0 | 0.0 | 0.0 | 0.00 | 0.00 | 0.00 | 77 | 1019.5 |
| 20260902172503 | 68 | 0 | 0.0 | 0.0 | 0.00 | 0.00 | 0.00 | 77 | 1019.4 |
| 20260902172004 | 68 | 219 | 0.0 | 2.0 | 0.00 | 0.00 | 0.00 | 77 | 1019.4 |
| 20260902171503 | 68 | 200 | 1.0 | 5.0 | 0.00 | 0.00 | 0.00 | 76 | 1019.4 |
| 20260902171003 | 68 | 188 | 1.0 | 5.0 | 0.00 | 0.00 | 0.00 | 75 | 1019.5 |
| 20260902170503 | 69 | 183 | 1.0 | 5.0 | 0.00 | 0.00 | 0.00 | 75 | 1019.4 |
| 20260902170003 | 69 | 194 | 2.0 | 4.0 | 0.00 | 0.00 | 0.00 | 75 | 1019.4 |
| 20260902165717 | 69 | 190 | 2.0 | 4.0 | 0.00 | 0.00 | 0.00 | 75 | 1019.6 |
| 20260902165003 | 69 | 174 | 1.0 | 5.0 | 0.00 | 0.00 | 0.00 | 75 | 1019.5 |
| 20260902164503 | 69 | 187 | 2.0 | 5.0 | 0.00 | 0.00 | 0.00 | 75 | 1019.5 |
| 20260902164003 | 69 | 213 | 2.0 | 5.0 | 0.00 | 0.00 | 0.00 | 75 | 1019.6 |
| 20260902163716 | 69 | 230 | 2.0 | 5.0 | 0.00 | 0.00 | 0.00 | 75 | 1019.5 |
| 20260902163003 | 69 | 222 | 2.0 | 5.0 | 0.00 | 0.00 | 0.00 | 75 | 1019.6 |
| 20260902162503 | 69 | 210 | 2.0 | 4.0 | 0.00 | 0.00 | 0.00 | 75 | 1019.5 |
| 20260902162003 | 69 | 191 | 2.0 | 7.0 | 0.00 | 0.00 | 0.00 | 74 | 1019.6 |
| 20260902161503 | 69 | 192 | 2.0 | 7.0 | 0.00 | 0.00 | 0.00 | 74 | 1019.6 |
| 20260902161003 | 69 | 217 | 3.0 | 7.0 | 0.00 | 0.00 | 0.00 | 73 | 1019.7 |
| 20260902160503 | 69 | 228 | 4.0 | 12.0 | 0.00 | 0.00 | 0.00 | 72 | 1019.7 |
| 20260902160003 | 69 | 236 | 5.0 | 12.0 | 0.00 | 0.00 | 0.00 | 72 | 1019.7 |
| 20260902155503 | 70 | 242 | 5.0 | 10.0 | 0.00 | 0.00 | 0.00 | 70 | 1019.7 |
| 20260902155003 | 70 | 235 | 4.0 | 10.0 | 0.00 | 0.00 | 0.00 | 70 | 1019.7 |
| 20260902154503 | 70 | 227 | 4.0 | 9.0 | 0.00 | 0.00 | 0.00 | 69 | 1019.8 |
| 20260902154003 | 70 | 231 | 4.0 | 9.0 | 0.00 | 0.00 | 0.00 | 69 | 1019.8 |
| 20260902153503 | 70 | 238 | 4.0 | 11.0 | 0.00 | 0.00 | 0.00 | 69 | 1019.9 |
| 20260902153003 | 70 | 220 | 4.0 | 11.0 | 0.00 | 0.00 | 0.00 | 69 | 1019.8 |
| 20260902152503 | 69 | 188 | 3.0 | 6.0 | 0.00 | 0.00 | 0.00 | 70 | 1019.8 |
| 20260902152003 | 68 | 199 | 2.0 | 6.0 | 0.00 | 0.00 | 0.00 | 70 | 1019.9 |
| 20260902151503 | 68 | 193 | 2.0 | 6.0 | 0.00 | 0.00 | 0.00 | 71 | 1020.0 |
| 20260902151003 | 67 | 176 | 1.0 | 4.0 | 0.00 | 0.00 | 0.00 | 70 | 1020.0 |
| 20260902150718 | 67 | 199 | 2.0 | 4.0 | 0.00 | 0.00 | 0.00 | 70 | 1020.0 |
| 20260902150217 | 67 | 227 | 2.0 | 4.0 | 0.00 | 0.00 | 0.00 | 70 | 1020.0 |
| 20260902145503 | 66 | 237 | 2.0 | 4.0 | 0.00 | 0.00 | 0.00 | 70 | 1020.1 |
| 20260902145004 | 66 | 224 | 2.0 | 6.0 | 0.00 | 0.00 | 0.00 | 70 | 1020.1 |
| 20260902144718 | 66 | 218 | 2.0 | 6.0 | 0.00 | 0.00 | 0.00 | 70 | 1020.1 |
| 20260902144217 | 66 | 214 | 2.0 | 6.0 | 0.00 | 0.00 | 0.00 | 71 | 1020.2 |
| 20260902143503 | 66 | 242 | 4.0 | 9.0 | 0.00 | 0.00 | 0.00 | 73 | 1020.2 |
| 20260902143003 | 66 | 249 | 4.0 | 10.0 | 0.00 | 0.00 | 0.00 | 73 | 1020.2 |
| 20260902142503 | 66 | 250 | 4.0 | 10.0 | 0.00 | 0.00 | 0.00 | 75 | 1020.4 |
| 20260902142003 | 66 | 260 | 6.0 | 15.0 | 0.00 | 0.00 | 0.00 | 75 | 1020.3 |
| 20260902141503 | 66 | 275 | 6.0 | 15.0 | 0.00 | 0.00 | 0.00 | 74 | 1020.2 |
| 20260902141003 | 67 | 282 | 7.0 | 17.0 | 0.00 | 0.00 | 0.00 | 73 | 1020.2 |
| 20260902140503 | 67 | 278 | 8.0 | 17.0 | 0.00 | 0.00 | 0.00 | 72 | 1020.2 |
| 20260902140003 | 68 | 275 | 8.0 | 16.0 | 0.00 | 0.00 | 0.00 | 72 | 1020.2 |
| 20260902135503 | 70 | 277 | 7.0 | 16.0 | 0.00 | 0.00 | 0.00 | 70 | 1020.0 |
| 20260902135003 | 71 | 281 | 6.0 | 13.0 | 0.00 | 0.00 | 0.00 | 66 | 1019.9 |
| 20260902134717 | 71 | 281 | 6.0 | 13.0 | 0.00 | 0.00 | 0.00 | 66 | 1019.8 |
| 20260902134005 | 72 | 273 | 5.0 | 10.0 | 0.00 | 0.00 | 0.00 | 65 | 1019.8 |
| 20260902133503 | 72 | 278 | 5.0 | 10.0 | 0.00 | 0.00 | 0.00 | 64 | 1019.7 |
| 20260902133003 | 72 | 285 | 5.0 | 12.0 | 0.00 | 0.00 | 0.00 | 64 | 1019.8 |
| 20260902132503 | 73 | 277 | 5.0 | 12.0 | 0.00 | 0.00 | 0.00 | 63 | 1019.7 |
| 20260902132003 | 73 | 260 | 4.0 | 10.0 | 0.00 | 0.00 | 0.00 | 62 | 1019.8 |
| 20260902131503 | 73 | 272 | 5.0 | 10.0 | 0.00 | 0.00 | 0.00 | 63 | 1019.7 |
| 20260902131003 | 73 | 291 | 5.0 | 10.0 | 0.00 | 0.00 | 0.00 | 64 | 1019.7 |
| 20260902130503 | 73 | 291 | 4.0 | 8.0 | 0.00 | 0.00 | 0.00 | 64 | 1019.6 |
| 20260902130003 | 73 | 262 | 4.0 | 8.0 | 0.00 | 0.00 | 0.00 | 64 | 1019.7 |
| 20260902125503 | 73 | 249 | 4.0 | 8.0 | 0.00 | 0.00 | 0.00 | 65 | 1019.7 |
| 20260902125003 | 73 | 245 | 4.0 | 8.0 | 0.00 | 0.00 | 0.00 | 65 | 1019.8 |
| 20260902124717 | 73 | 236 | 4.0 | 8.0 | 0.00 | 0.00 | 0.00 | 66 | 1019.7 |
| 20260902124003 | 73 | 225 | 4.0 | 10.0 | 0.00 | 0.00 | 0.00 | 68 | 1019.7 |
| 20260902123503 | 73 | 227 | 5.0 | 12.0 | 0.00 | 0.00 | 0.00 | 66 | 1019.7 |
| 20260902123004 | 73 | 237 | 5.0 | 13.0 | 0.00 | 0.00 | 0.00 | 66 | 1019.7 |
| 20260902122503 | 73 | 244 | 6.0 | 13.0 | 0.00 | 0.00 | 0.00 | 67 | 1019.8 |
| 20260902122003 | 72 | 219 | 5.0 | 13.0 | 0.00 | 0.00 | 0.00 | 68 | 1019.8 |
| 20260902121717 | 72 | 197 | 5.0 | 13.0 | 0.00 | 0.00 | 0.00 | 71 | 1019.8 |
| 20260902121003 | 73 | 195 | 4.0 | 11.0 | 0.00 | 0.00 | 0.00 | 70 | 1019.8 |
| 20260902120503 | 73 | 219 | 5.0 | 14.0 | 0.00 | 0.00 | 0.00 | 71 | 1019.7 |
| 20260902120003 | 73 | 203 | 6.0 | 14.0 | 0.00 | 0.00 | 0.00 | 72 | 1019.8 |
| 20260902115503 | 72 | 179 | 5.0 | 13.0 | 0.00 | 0.00 | 0.00 | 72 | 1019.7 |
| 20260902115003 | 72 | 187 | 5.0 | 12.0 | 0.00 | 0.00 | 0.00 | 73 | 1019.8 |
| 20260902114503 | 72 | 196 | 5.0 | 12.0 | 0.00 | 0.00 | 0.00 | 72 | 1019.9 |
| 20260902114218 | 72 | 184 | 5.0 | 12.0 | 0.00 | 0.00 | 0.00 | 73 | 1019.9 |
| 20260902113503 | 72 | 174 | 5.0 | 12.0 | 0.00 | 0.00 | 0.00 | 71 | 1019.9 |
| 20260902113003 | 72 | 180 | 4.0 | 9.0 | 0.00 | 0.00 | 0.00 | 72 | 1019.9 |
| 20260902112716 | 72 | 186 | 3.0 | 9.0 | 0.00 | 0.00 | 0.00 | 72 | 1019.9 |
| 20260902112003 | 72 | 198 | 4.0 | 12.0 | 0.00 | 0.00 | 0.00 | 72 | 1019.7 |
| 20260902111503 | 72 | 182 | 5.0 | 12.0 | 0.00 | 0.00 | 0.00 | 72 | 1019.8 |
| 20260902111005 | 72 | 181 | 4.0 | 10.0 | 0.00 | 0.00 | 0.00 | 71 | 1019.8 |
| 20260902110503 | 72 | 197 | 4.0 | 10.0 | 0.00 | 0.00 | 0.00 | 72 | 1019.8 |
| 20260902110217 | 72 | 187 | 4.0 | 10.0 | 0.00 | 0.00 | 0.00 | 72 | 1019.8 |
| 20260902105716 | 72 | 198 | 3.0 | 11.0 | 0.00 | 0.00 | 0.00 | 71 | 1019.9 |
| 20260902105003 | 72 | 198 | 4.0 | 11.0 | 0.00 | 0.00 | 0.00 | 71 | 1020.0 |
| 20260902104503 | 72 | 178 | 3.0 | 10.0 | 0.00 | 0.00 | 0.00 | 71 | 1020.0 |
| 20260902104217 | 72 | 191 | 4.0 | 10.0 | 0.00 | 0.00 | 0.00 | 69 | 1019.9 |
| 20260902103505 | 72 | 220 | 4.0 | 10.0 | 0.00 | 0.00 | 0.00 | 69 | 1019.9 |
| 20260902103003 | 72 | 197 | 4.0 | 10.0 | 0.00 | 0.00 | 0.00 | 72 | 1019.9 |
| 20260902102503 | 71 | 181 | 5.0 | 12.0 | 0.00 | 0.00 | 0.00 | 71 | 1020.0 |
| 20260902102003 | 71 | 180 | 5.0 | 12.0 | 0.00 | 0.00 | 0.00 | 71 | 1020.0 |
| 20260902101503 | 71 | 187 | 5.0 | 11.0 | 0.00 | 0.00 | 0.00 | 71 | 1020.0 |
| 20260902101003 | 71 | 214 | 5.0 | 11.0 | 0.00 | 0.01 | 0.00 | 71 | 1020.0 |
| 20260902100503 | 71 | 236 | 5.0 | 11.0 | 0.00 | 0.01 | 0.00 | 70 | 1020.0 |
| 20260902100003 | 71 | 224 | 4.0 | 10.0 | 0.00 | 0.01 | 0.00 | 71 | 1020.1 |
| 20260902095503 | 72 | 211 | 4.0 | 10.0 | 0.00 | 0.01 | 0.00 | 70 | 1020.0 |
| 20260902095003 | 71 | 214 | 4.0 | 10.0 | 0.00 | 0.01 | 0.00 | 70 | 1020.1 |
| 20260902094503 | 71 | 186 | 4.0 | 10.0 | 0.00 | 0.01 | 0.00 | 70 | 1020.0 |
| 20260902094003 | 71 | 211 | 5.0 | 11.0 | 0.00 | 0.01 | 0.00 | 69 | 1020.2 |
| 20260902093503 | 70 | 248 | 6.0 | 12.0 | 0.00 | 0.01 | 0.00 | 70 | 1020.1 |
| 20260902093003 | 70 | 247 | 5.0 | 12.0 | 0.00 | 0.01 | 0.00 | 69 | 1020.1 |
| 20260902092503 | 70 | 230 | 4.0 | 11.0 | 0.00 | 0.01 | 0.00 | 67 | 1020.1 |
| 20260902092003 | 70 | 196 | 4.0 | 11.0 | 0.00 | 0.01 | 0.00 | 67 | 1020.1 |
| 20260902091503 | 70 | 185 | 4.0 | 10.0 | 0.00 | 0.01 | 0.00 | 67 | 1020.0 |
| 20260902091217 | 70 | 178 | 4.0 | 10.0 | 0.00 | 0.01 | 0.00 | 67 | 1020.0 |
| 20260902090503 | 69 | 179 | 4.0 | 10.0 | 0.00 | 0.01 | 0.00 | 68 | 1020.0 |
| 20260902090003 | 68 | 177 | 4.0 | 11.0 | 0.00 | 0.01 | 0.00 | 68 | 1020.1 |
| 20260902085503 | 68 | 172 | 5.0 | 11.0 | 0.00 | 0.01 | 0.00 | 69 | 1020.1 |
| 20260902085003 | 68 | 173 | 4.0 | 10.0 | 0.00 | 0.01 | 0.00 | 70 | 1020.2 |
| 20260902084718 | 68 | 189 | 4.0 | 10.0 | 0.00 | 0.01 | 0.00 | 70 | 1020.1 |
| 20260902084003 | 68 | 230 | 4.0 | 10.0 | 0.00 | 0.01 | 0.00 | 73 | 1020.1 |
| 20260902083503 | 67 | 229 | 4.0 | 9.0 | 0.00 | 0.01 | 0.00 | 72 | 1020.0 |
| 20260902083003 | 67 | 229 | 4.0 | 10.0 | 0.00 | 0.01 | 0.00 | 72 | 1020.1 |
| 20260902082717 | 67 | 225 | 4.0 | 10.0 | 0.00 | 0.01 | 0.00 | 72 | 1019.9 |
| 20260902082003 | 67 | 215 | 4.0 | 11.0 | 0.00 | 0.01 | 0.00 | 72 | 1019.8 |
| 20260902081717 | 67 | 210 | 4.0 | 11.0 | 0.00 | 0.01 | 0.00 | 74 | 1019.8 |
| 20260902081003 | 66 | 188 | 4.0 | 9.0 | 0.00 | 0.01 | 0.00 | 77 | 1019.9 |
| 20260902080503 | 66 | 169 | 3.0 | 7.0 | 0.00 | 0.01 | 0.00 | 79 | 1019.9 |
| 20260902080003 | 65 | 170 | 2.0 | 6.0 | 0.00 | 0.01 | 0.00 | 81 | 1019.9 |
| 20260902075503 | 64 | 171 | 2.0 | 9.0 | 0.00 | 0.01 | 0.00 | 82 | 1019.9 |
| 20260902075003 | 63 | 185 | 3.0 | 9.0 | 0.00 | 0.01 | 0.00 | 82 | 1019.8 |
| 20260902074503 | 63 | 212 | 2.0 | 6.0 | 0.00 | 0.01 | 0.00 | 82 | 1019.9 |
| 20260902074003 | 63 | 236 | 3.0 | 10.0 | 0.00 | 0.01 | 0.00 | 83 | 1020.0 |
| 20260902073717 | 63 | 234 | 3.0 | 10.0 | 0.00 | 0.01 | 0.00 | 83 | 1020.0 |
| 20260902073003 | 63 | 169 | 3.0 | 7.0 | 0.00 | 0.01 | 0.00 | 84 | 1020.0 |
| 20260902072503 | 62 | 152 | 3.0 | 7.0 | 0.00 | 0.01 | 0.00 | 85 | 1020.0 |
| 20260902072003 | 62 | 155 | 3.0 | 7.0 | 0.00 | 0.01 | 0.00 | 87 | 1019.9 |
| 20260902071503 | 61 | 160 | 3.0 | 6.0 | 0.00 | 0.01 | 0.00 | 87 | 1019.9 |
| 20260902071003 | 61 | 165 | 2.0 | 6.0 | 0.00 | 0.01 | 0.00 | 88 | 1019.8 |
| 20260902070503 | 60 | 172 | 2.0 | 6.0 | 0.00 | 0.01 | 0.00 | 89 | 1019.9 |
| 20260902070004 | 60 | 170 | 2.0 | 6.0 | 0.00 | 0.01 | 0.00 | 90 | 1019.8 |
| 20260902065503 | 60 | 162 | 2.0 | 6.0 | 0.00 | 0.01 | 0.00 | 91 | 1019.7 |
| 20260902065003 | 59 | 155 | 1.0 | 3.0 | 0.00 | 0.01 | 0.00 | 92 | 1019.7 |
| 20260902064503 | 58 | 155 | 1.0 | 4.0 | 0.00 | 0.01 | 0.00 | 92 | 1019.6 |
| 20260902064003 | 58 | 155 | 1.0 | 5.0 | 0.00 | 0.01 | 0.00 | 92 | 1019.6 |
| 20260902063503 | 58 | 155 | 1.0 | 5.0 | 0.00 | 0.01 | 0.00 | 93 | 1019.7 |
| 20260902063003 | 58 | 149 | 2.0 | 5.0 | 0.00 | 0.01 | 0.00 | 93 | 1019.6 |
| 20260902062503 | 57 | 141 | 2.0 | 5.0 | 0.00 | 0.01 | 0.00 | 94 | 1019.6 |
| 20260902062003 | 57 | 137 | 1.0 | 3.0 | 0.00 | 0.01 | 0.00 | 94 | 1019.6 |
| 20260902061503 | 57 | 138 | 0.0 | 3.0 | 0.00 | 0.01 | 0.00 | 94 | 1019.6 |
| 20260902061003 | 57 | 0 | 0.0 | 0.0 | 0.00 | 0.01 | 0.00 | 94 | 1019.5 |
| 20260902060716 | 56 | 0 | 0.0 | 0.0 | 0.00 | 0.01 | 0.00 | 94 | 1019.6 |
| 20260902060003 | 56 | 0 | 0.0 | 0.0 | 0.00 | 0.01 | 0.00 | 94 | 1019.6 |
| 20260902055503 | 56 | 0 | 0.0 | 0.0 | 0.00 | 0.01 | 0.00 | 94 | 1019.6 |
| 20260902055003 | 56 | 0 | 0.0 | 0.0 | 0.00 | 0.01 | 0.00 | 94 | 1019.7 |
| 20260902054503 | 56 | 0 | 0.0 | 0.0 | 0.00 | 0.01 | 0.00 | 94 | 1019.7 |
| 20260902054003 | 56 | 0 | 0.0 | 0.0 | 0.00 | 0.01 | 0.00 | 94 | 1019.7 |
| 20260902053503 | 56 | 0 | 0.0 | 0.0 | 0.00 | 0.01 | 0.00 | 94 | 1019.6 |
| 20260902053217 | 56 | 0 | 0.0 | 0.0 | 0.00 | 0.01 | 0.00 | 94 | 1019.6 |
| 20260902052503 | 55 | 0 | 0.0 | 0.0 | 0.00 | 0.01 | 0.00 | 94 | 1019.6 |
| 20260902052003 | 55 | 0 | 0.0 | 0.0 | 0.00 | 0.01 | 0.00 | 94 | 1019.6 |
| 20260902051503 | 55 | 0 | 0.0 | 0.0 | 0.00 | 0.01 | 0.00 | 94 | 1019.6 |
| 20260902051217 | 55 | 0 | 0.0 | 0.0 | 0.00 | 0.01 | 0.00 | 94 | 1019.5 |
| 20260902050503 | 55 | 0 | 0.0 | 0.0 | 0.00 | 0.01 | 0.00 | 94 | 1019.6 |
| 20260902050005 | 55 | 0 | 0.0 | 0.0 | 0.00 | 0.01 | 0.00 | 94 | 1019.6 |
| 20260902045718 | 55 | 0 | 0.0 | 0.0 | 0.00 | 0.01 | 0.00 | 94 | 1019.6 |
| 20260902045003 | 55 | 0 | 0.0 | 0.0 | 0.00 | 0.01 | 0.00 | 94 | 1019.6 |
| 20260902044503 | 55 | 0 | 0.0 | 0.0 | 0.00 | 0.01 | 0.00 | 94 | 1019.5 |
| 20260902044217 | 55 | 0 | 0.0 | 0.0 | 0.00 | 0.01 | 0.00 | 94 | 1019.5 |
| 20260902043503 | 55 | 0 | 0.0 | 0.0 | 0.00 | 0.01 | 0.00 | 94 | 1019.6 |
| 20260902043003 | 55 | 0 | 0.0 | 0.0 | 0.00 | 0.01 | 0.00 | 94 | 1019.5 |
| 20260902042503 | 55 | 0 | 0.0 | 0.0 | 0.00 | 0.01 | 0.00 | 93 | 1019.4 |
| 20260902042003 | 55 | 0 | 0.0 | 0.0 | 0.00 | 0.01 | 0.00 | 93 | 1019.6 |
| 20260902041503 | 55 | 0 | 0.0 | 0.0 | 0.00 | 0.01 | 0.00 | 93 | 1019.6 |
| 20260902041217 | 55 | 0 | 0.0 | 0.0 | 0.00 | 0.01 | 0.00 | 93 | 1019.6 |
| 20260902040503 | 55 | 0 | 0.0 | 0.0 | 0.00 | 0.01 | 0.00 | 93 | 1019.5 |
| 20260902040217 | 55 | 0 | 0.0 | 0.0 | 0.00 | 0.01 | 0.00 | 93 | 1019.5 |
| 20260902035503 | 55 | 0 | 0.0 | 0.0 | 0.00 | 0.01 | 0.00 | 93 | 1019.7 |
| 20260902035003 | 55 | 0 | 0.0 | 0.0 | 0.00 | 0.01 | 0.00 | 93 | 1019.6 |
| 20260902034718 | 55 | 0 | 0.0 | 0.0 | 0.00 | 0.01 | 0.00 | 93 | 1019.6 |
| 20260902034003 | 55 | 0 | 0.0 | 0.0 | 0.00 | 0.01 | 0.00 | 93 | 1019.7 |
| 20260902033503 | 55 | 0 | 0.0 | 0.0 | 0.00 | 0.01 | 0.00 | 93 | 1019.8 |
| 20260902033217 | 55 | 0 | 0.0 | 0.0 | 0.00 | 0.01 | 0.00 | 93 | 1019.8 |
| 20260902032503 | 55 | 163 | 1.0 | 2.0 | 0.00 | 0.01 | 0.00 | 93 | 1019.8 |
| 20260902032003 | 55 | 163 | 1.0 | 2.0 | 0.00 | 0.01 | 0.00 | 93 | 1019.8 |
| 20260902031503 | 55 | 163 | 0.0 | 2.0 | 0.00 | 0.01 | 0.00 | 93 | 1019.8 |
| 20260902031003 | 55 | 0 | 0.0 | 0.0 | 0.00 | 0.01 | 0.00 | 93 | 1019.8 |
| 20260902030503 | 55 | 0 | 0.0 | 0.0 | 0.00 | 0.01 | 0.00 | 94 | 1019.9 |
| 20260902030003 | 55 | 0 | 0.0 | 0.0 | 0.00 | 0.01 | 0.00 | 94 | 1019.9 |
| 20260902025503 | 55 | 0 | 0.0 | 0.0 | 0.00 | 0.01 | 0.00 | 93 | 1020.0 |
| 20260902025216 | 55 | 0 | 0.0 | 0.0 | 0.00 | 0.01 | 0.00 | 93 | 1020.0 |
| 20260902024505 | 55 | 0 | 0.0 | 0.0 | 0.00 | 0.01 | 0.00 | 93 | 1020.1 |
| 20260902024218 | 55 | 0 | 0.0 | 0.0 | 0.00 | 0.01 | 0.00 | 93 | 1020.1 |
| 20260902023717 | 55 | 0 | 0.0 | 0.0 | 0.00 | 0.01 | 0.00 | 93 | 1020.0 |
| 20260902023003 | 55 | 0 | 0.0 | 0.0 | 0.00 | 0.01 | 0.00 | 93 | 1020.1 |
| 20260902022503 | 55 | 0 | 0.0 | 0.0 | 0.00 | 0.01 | 0.00 | 93 | 1020.2 |
| 20260902022003 | 55 | 159 | 0.0 | 4.0 | 0.00 | 0.01 | 0.00 | 93 | 1020.3 |
| 20260902021717 | 55 | 159 | 1.0 | 4.0 | 0.00 | 0.01 | 0.00 | 93 | 1020.3 |
| 20260902021003 | 55 | 159 | 0.0 | 2.0 | 0.00 | 0.01 | 0.00 | 93 | 1020.4 |
| 20260902020717 | 55 | 0 | 0.0 | 0.0 | 0.00 | 0.01 | 0.00 | 93 | 1020.3 |
| 20260902020218 | 55 | 0 | 0.0 | 0.0 | 0.00 | 0.01 | 0.00 | 93 | 1020.3 |
| 20260902015503 | 55 | 0 | 0.0 | 0.0 | 0.00 | 0.01 | 0.00 | 94 | 1020.3 |
| 20260902015003 | 55 | 0 | 0.0 | 0.0 | 0.00 | 0.01 | 0.00 | 93 | 1020.2 |
| 20260902014503 | 55 | 0 | 0.0 | 0.0 | 0.00 | 0.01 | 0.00 | 93 | 1020.1 |
| 20260902014003 | 55 | 0 | 0.0 | 0.0 | 0.00 | 0.01 | 0.00 | 93 | 1020.2 |
| 20260902013503 | 55 | 0 | 0.0 | 0.0 | 0.00 | 0.01 | 0.00 | 94 | 1020.2 |
| 20260902013003 | 55 | 0 | 0.0 | 0.0 | 0.00 | 0.01 | 0.00 | 94 | 1020.2 |
| 20260902012503 | 55 | 0 | 0.0 | 0.0 | 0.00 | 0.01 | 0.00 | 94 | 1020.2 |
| 20260902012003 | 55 | 0 | 0.0 | 0.0 | 0.00 | 0.01 | 0.00 | 94 | 1020.3 |
| 20260902011503 | 55 | 0 | 0.0 | 0.0 | 0.00 | 0.01 | 0.00 | 94 | 1020.2 |
| 20260902011003 | 55 | 0 | 0.0 | 0.0 | 0.00 | 0.01 | 0.00 | 93 | 1020.1 |
| 20260902010717 | 54 | 0 | 0.0 | 0.0 | 0.00 | 0.01 | 0.00 | 93 | 1020.1 |
| 20260902010003 | 54 | 0 | 0.0 | 0.0 | 0.00 | 0.01 | 0.00 | 93 | 1020.1 |
| 20260902005503 | 54 | 0 | 0.0 | 0.0 | 0.00 | 0.01 | 0.00 | 93 | 1020.1 |
| 20260902005003 | 54 | 0 | 0.0 | 0.0 | 0.00 | 0.01 | 0.00 | 93 | 1020.1 |
| 20260902004503 | 54 | 0 | 0.0 | 0.0 | 0.00 | 0.01 | 0.00 | 93 | 1020.2 |
| 20260902004003 | 54 | 0 | 0.0 | 0.0 | 0.00 | 0.01 | 0.00 | 93 | 1020.2 |
| 20260902003503 | 54 | 0 | 0.0 | 0.0 | 0.00 | 0.01 | 0.00 | 93 | 1020.3 |
| 20260902003005 | 54 | 0 | 0.0 | 0.0 | 0.00 | 0.01 | 0.00 | 93 | 1020.2 |
| 20260902002503 | 54 | 303 | 0.0 | 1.0 | 0.00 | 0.01 | 0.00 | 93 | 1020.3 |
| 20260902002003 | 54 | 303 | 1.0 | 2.0 | 0.00 | 0.01 | 0.00 | 93 | 1020.2 |
| 20260902001716 | 54 | 303 | 1.0 | 2.0 | 0.00 | 0.01 | 0.00 | 93 | 1020.2 |
| 20260902001217 | 54 | 303 | 1.0 | 2.0 | 0.00 | 0.01 | 0.00 | 93 | 1020.3 |
| 20260902000716 | 54 | 303 | 0.0 | 1.0 | 0.00 | 0.01 | 0.00 | 93 | 1020.4 |
| 20260902000003 | 54 | 0 | 0.0 | 0.0 | 0.00 | 0.01 | 0.00 | 93 | 1020.3 |
| 20260901235504 | 54 | 0 | 0.0 | 0.0 | 0.00 | 0.01 | 0.00 | 93 | 1020.3 |
| 20260901235217 | 54 | 0 | 0.0 | 0.0 | 0.00 | 0.01 | 0.00 | 93 | 1020.2 |
| 20260901234503 | 54 | 0 | 0.0 | 0.0 | 0.00 | 0.01 | 0.00 | 93 | 1020.3 |
| 20260901234003 | 54 | 0 | 0.0 | 0.0 | 0.00 | 0.01 | 0.00 | 93 | 1020.2 |
| 20260901233718 | 54 | 0 | 0.0 | 0.0 | 0.00 | 0.01 | 0.00 | 93 | 1020.3 |
| 20260901233003 | 55 | 0 | 0.0 | 0.0 | 0.00 | 0.01 | 0.00 | 93 | 1020.3 |
| 20260901232503 | 55 | 0 | 0.0 | 0.0 | 0.00 | 0.01 | 0.00 | 93 | 1020.3 |
| 20260901232003 | 55 | 0 | 0.0 | 0.0 | 0.00 | 0.01 | 0.00 | 93 | 1020.2 |
| 20260901231503 | 55 | 0 | 0.0 | 0.0 | 0.00 | 0.01 | 0.00 | 93 | 1020.3 |
| 20260901231003 | 55 | 0 | 0.0 | 0.0 | 0.00 | 0.01 | 0.00 | 92 | 1020.4 |
| 20260901230503 | 55 | 0 | 0.0 | 0.0 | 0.00 | 0.01 | 0.00 | 92 | 1020.6 |
| 20260901230004 | 55 | 0 | 0.0 | 0.0 | 0.00 | 0.01 | 0.00 | 93 | 1020.5 |
| 20260901225718 | 55 | 0 | 0.0 | 0.0 | 0.00 | 0.01 | 0.00 | 93 | 1020.4 |
| 20260901225219 | 55 | 303 | 0.0 | 2.0 | 0.00 | 0.01 | 0.00 | 93 | 1020.3 |
| 20260901224503 | 55 | 0 | 0.0 | 0.0 | 0.00 | 0.01 | 0.00 | 92 | 1020.4 |
| 20260901224003 | 55 | 0 | 0.0 | 0.0 | 0.00 | 0.01 | 0.00 | 92 | 1020.3 |
| 20260901223503 | 55 | 0 | 0.0 | 0.0 | 0.00 | 0.01 | 0.00 | 92 | 1020.3 |
| 20260901223003 | 55 | 0 | 0.0 | 0.0 | 0.00 | 0.01 | 0.00 | 92 | 1020.3 |
| 20260901222503 | 55 | 0 | 0.0 | 0.0 | 0.00 | 0.01 | 0.00 | 92 | 1020.5 |
| 20260901222217 | 55 | 0 | 0.0 | 0.0 | 0.00 | 0.01 | 0.00 | 92 | 1020.5 |
| 20260901221503 | 56 | 0 | 0.0 | 0.0 | 0.00 | 0.01 | 0.00 | 92 | 1020.8 |
| 20260901221003 | 56 | 0 | 0.0 | 0.0 | 0.00 | 0.01 | 0.00 | 92 | 1020.8 |
| 20260901220503 | 56 | 0 | 0.0 | 0.0 | 0.00 | 0.01 | 0.00 | 92 | 1021.0 |
| 20260901220004 | 56 | 0 | 0.0 | 0.0 | 0.00 | 0.01 | 0.00 | 92 | 1020.9 |
| 20260901215503 | 56 | 0 | 0.0 | 0.0 | 0.00 | 0.01 | 0.01 | 92 | 1020.9 |
| 20260901215216 | 56 | 0 | 0.0 | 0.0 | 0.00 | 0.01 | 0.01 | 92 | 1020.9 |
| 20260901214503 | 56 | 0 | 0.0 | 0.0 | 0.00 | 0.01 | 0.01 | 91 | 1021.0 |
| 20260901214003 | 56 | 0 | 0.0 | 0.0 | 0.00 | 0.01 | 0.01 | 92 | 1021.0 |
| 20260901213503 | 56 | 0 | 0.0 | 0.0 | 0.00 | 0.01 | 0.01 | 91 | 1020.9 |
| 20260901213003 | 56 | 0 | 0.0 | 0.0 | 0.00 | 0.01 | 0.01 | 91 | 1020.9 |